2024/03/28 00:00:00,19.6, 1.1
2024/03/28 00:10:00,19.6, 1.4
2024/03/28 00:20:00,19.6, 1.4
2024/03/28 00:30:00,19.7, 1.4
2024/03/28 00:40:00,19.7, 1.2
2024/03/28 00:50:00,19.7, 1.2
2024/03/28 01:00:00,19.7, 1.4
2024/03/28 01:10:00,19.7, 1.2
2024/03/28 01:20:00,19.7, 1.1
2024/03/28 01:30:00,19.7, 0.7
2024/03/28 01:40:00,19.8, 1.1
2024/03/28 01:50:00,19.8, 0.7
2024/03/28 02:00:00,19.8, 0.6
2024/03/28 02:10:00,19.7, 1.4
2024/03/28 02:20:00,19.8, 1.1
2024/03/28 02:30:00,19.8, 0.8
2024/03/28 02:40:00,19.8, 0.6
2024/03/28 02:50:00,19.8, 1.0
2024/03/28 03:00:00,19.8, 0.8
2024/03/28 03:10:00,19.8, 0.5
2024/03/28 03:20:00,19.8, 0.5
2024/03/28 03:30:00,19.8, 0.6
2024/03/28 03:40:00,19.8, 0.7
2024/03/28 03:50:00,19.8, 0.7
2024/03/28 04:00:00,19.8, 0.8
2024/03/28 04:10:00,19.8, 0.6
2024/03/28 04:20:00,19.9, 1.0
2024/03/28 04:30:00,19.9, 0.8
2024/03/28 04:40:00,20.0, 0.8
2024/03/28 04:50:00,20.1, 0.8
2024/03/28 05:00:00,20.0, 0.8
2024/03/28 05:10:00,20.0, 1.0
2024/03/28 05:20:00,20.0, 1.3
2024/03/28 05:30:00,19.9, 1.1
2024/03/28 05:40:00,19.8, 0.9
2024/03/28 05:50:00,19.8, 0.7
2024/03/28 06:00:00,19.7, 0.4
2024/03/28 06:10:00,19.8, 0.8
2024/03/28 06:20:00,19.9, 0.9
2024/03/28 06:30:00,20.1, 1.4
2024/03/28 06:40:00,20.1, 0.9
2024/03/28 06:50:00,19.9, 1.3
2024/03/28 07:00:00,19.8, 1.5
2024/03/28 07:10:00,19.7, 2.0
2024/03/28 07:20:00,19.7, 2.6
2024/03/28 07:30:00,19.4, 2.9
2024/03/28 07:40:00,19.6, 3.2
2024/03/28 07:50:00,19.5, 3.6
2024/03/28 08:00:00,19.3, 3.7
2024/03/28 08:10:00,19.4, 3.7
2024/03/28 08:20:00,19.2, 3.7
2024/03/28 08:30:00,19.1, 3.6
2024/03/28 08:40:00,18.9, 3.8
2024/03/28 08:50:00,18.9, 3.7
2024/03/28 09:00:00,18.8, 3.5
2024/03/28 09:10:00,18.9, 3.6
2024/03/28 09:20:00,18.8, 4.0
2024/03/28 09:30:00,18.9, 4.9
2024/03/28 09:40:00,18.9, 5.2
2024/03/28 09:50:00,19.0, 6.1
2024/03/28 10:00:00,18.8, 6.4
2024/03/28 10:10:00,18.7, 5.7
2024/03/28 10:20:00,18.6, 5.6
2024/03/28 10:30:00,18.6, 5.5
2024/03/28 10:40:00,18.5, 5.4
2024/03/28 10:50:00,18.6, 5.5
2024/03/28 11:00:00,18.9, 6.3
2024/03/28 11:10:00,18.6, 6.3
2024/03/28 11:20:00,18.7, 6.7
2024/03/28 11:30:00,18.7, 7.1
2024/03/28 11:40:00,18.9, 7.3
2024/03/28 11:50:00,18.9, 7.3
2024/03/28 12:00:00,18.9, 7.3
2024/03/28 12:10:00,18.7, 7.1
2024/03/28 12:20:00,18.6, 6.5
2024/03/28 12:30:00,18.6, 6.8
2024/03/28 12:40:00,18.8, 7.4
2024/03/28 12:50:00,18.8, 7.3
2024/03/28 13:00:00,18.0, 7.1
2024/03/28 13:10:00,18.1, 7.5
2024/03/28 13:20:00,17.8, 7.3
2024/03/28 13:30:00,17.7, 7.3
2024/03/28 13:40:00,18.0, 7.9
2024/03/28 13:50:00,17.9, 7.9
2024/03/28 14:00:00,17.7, 7.9
2024/03/28 14:10:00,17.6, 7.6
2024/03/28 14:20:00,17.3, 7.0
2024/03/28 14:30:00,16.9, 6.4
2024/03/28 14:40:00,16.7, 6.8
2024/03/28 14:50:00,16.6, 6.8
2024/03/28 15:00:00,16.4, 6.5
2024/03/28 15:10:00,15.9, 6.6
2024/03/28 15:20:00,15.9, 6.8
2024/03/28 15:30:00,16.1, 6.7
2024/03/28 15:40:00,16.2, 6.1
2024/03/28 15:50:00,15.8, 6.5
2024/03/28 16:00:00,15.8, 6.4
2024/03/28 16:10:00,15.5, 6.4
2024/03/28 16:20:00,15.5, 6.4
2024/03/28 16:30:00,15.2, 6.2
2024/03/28 16:40:00,15.0, 6.6
2024/03/28 16:50:00,14.6, 6.6
2024/03/28 17:00:00,14.4, 6.5
2024/03/28 17:10:00,14.3, 6.3
2024/03/28 17:20:00,13.8, 6.6
2024/03/28 17:30:00,13.8, 6.4
2024/03/28 17:40:00,13.6, 6.2
2024/03/28 17:50:00,13.3, 6.4
2024/03/28 18:00:00,13.2, 6.4
2024/03/28 18:10:00,12.9, 6.5
2024/03/28 18:20:00,12.4, 6.3
2024/03/28 18:30:00,12.1, 6.2
2024/03/28 18:40:00,11.7, 7.0
2024/03/28 18:50:00,11.6, 6.5
2024/03/28 19:00:00,11.3, 6.5
2024/03/28 19:10:00,11.1, 6.8
2024/03/28 19:20:00,10.8, 6.4
2024/03/28 19:30:00,10.9, 6.5
2024/03/28 19:40:00,10.8, 6.4
2024/03/28 19:50:00,10.7, 6.4
2024/03/28 20:00:00,10.7, 6.4
2024/03/28 20:10:00,10.4, 6.6
2024/03/28 20:20:00,10.2, 6.6
2024/03/28 20:30:00,10.1, 6.4
2024/03/28 20:40:00,10.1, 6.5
2024/03/28 20:50:00,10.1, 6.6
2024/03/28 21:00:00,10.0, 7.0
2024/03/28 21:10:00, 9.9, 7.0
2024/03/28 21:20:00, 9.6, 7.0
2024/03/28 21:30:00, 9.6, 7.2
2024/03/28 21:40:00, 9.3, 7.3
2024/03/28 21:50:00, 9.2, 6.8
2024/03/28 22:00:00, 8.8, 7.2
2024/03/28 22:10:00, 8.0, 7.5
2024/03/28 22:20:00, 8.2, 7.5
2024/03/28 22:30:00, 8.2, 7.7
2024/03/28 22:40:00, 8.3, 7.7
2024/03/28 22:50:00, 8.4, 7.6
2024/03/28 23:00:00, 8.3, 7.5
2024/03/28 23:10:00, 7.8, 7.9
2024/03/28 23:20:00, 7.4, 7.6
2024/03/28 23:30:00, 6.7, 7.9
2024/03/28 23:40:00, 5.9, 7.9
2024/03/28 23:50:00, 6.2, 7.9
